Regional Weather Roundup
Issued by NWS

Home | Current Version | Previous Version | Text Only | Print | Product List | Glossary Off
Versions: 1 2 3 4 5 6 7 8 9 10 11 12 13 14 15 16 17 18 19 20 21 22 23 24 25 26 27 28 29 30 31 32 33 34 35 36 37 38 39 40 41 42 43 44 45 46 47 48 49 50

000
ASUS43 KOAX 241810
RWRNE

WEATHER ROUNDUP FOR NEBRASKA
NATIONAL WEATHER SERVICE OMAHA NE
100 PM CDT SUN JUL 24 2016

NOTES: SATELLITE DATA IS BEING USED TO AUGMENT CLOUD COVER ABOVE
       12000 FEET.
       "FAIR" INDICATES FEW OR NO CLOUDS BELOW 12,000 FEET WITH NO
       SIGNIFICANT WEATHER AND/OR OBSTRUCTIONS TO VISIBILITY.

  * THESE STATIONS DO NOT REPORT WEATHER SUCH AS RAIN...SNOW OR FOG.

NEZ001>004-019>022-054>056-241900-
NEBRASKA PANHANDLE

CITY           SKY/WX    TMP DP  RH WIND       PRES   REMARKS
SCOTTSBLUFF    SUNNY     84  51  31 E21       30.16F
6HR MIN TEMP:  62; 6HR MAX TEMP:  84;

ALLIANCE       CLOUDY    77  51  40 E18       30.19F
6HR MIN TEMP:  57; 6HR MAX TEMP:  78;

CHADRON        SUNNY     84  43  23 E14G23    30.15F
6HR MIN TEMP:  57; 6HR MAX TEMP:  85;

KIMBALL        CLOUDY    80  56  43 SE20      30.21S
SIDNEY         SUNNY     81  54  39 SE12      30.21S
6HR MIN TEMP:  63; 6HR MAX TEMP:  81; 6HR PCP: TRACE;

$$

NEZ057>060-069>072-079>082-241900-
SOUTHWEST NEBRASKA

CITY           SKY/WX    TMP DP  RH WIND       PRES   REMARKS
NORTH PLATTE   CLOUDY    81  56  42 E14G21    30.13F
6HR MIN TEMP:  69; 6HR MAX TEMP:  81;

IMPERIAL       SUNNY     83  52  34 NE15      30.15F
6HR MIN TEMP:  69; 6HR MAX TEMP:  83;

LEXINGTON      MOSUNNY   82  56  39 NE13G22   30.11S
MCCOOK         SUNNY     86  58  38 NE22G29   30.08S
6HR MIN TEMP:  67; 6HR MAX TEMP:  86;

OGALLALA       CLOUDY    82  49  32 SE20G26   30.09F
$$

NEZ005>010-023>029-035>040-094-241900-
NORTH CENTRAL NEBRASKA

CITY           SKY/WX    TMP DP  RH WIND       PRES   REMARKS
VALENTINE      CLOUDY    80  50  34 N6        30.13F
6HR MIN TEMP:  68; 6HR MAX TEMP:  81;

AINSWORTH      CLOUDY    80  58  46 E3        30.13F
BROKEN BOW     SUNNY     80  62  54 NE5       30.12F
6HR MIN TEMP:  67; 6HR MAX TEMP:  80;

O`NEILL        CLOUDY    79  58  49 NW10      30.13S
ORD            CLOUDY    81  63  54 N6        30.10F
6HR MIN TEMP:  66; 6HR MAX TEMP:  81;

THEDFORD       CLOUDY    80  57  44 SE7       30.15F
$$

NEZ041-046>049-061>064-073>077-083>087-241900-
SOUTH CENTRAL NEBRASKA

CITY           SKY/WX    TMP DP  RH WIND       PRES   REMARKS
GRAND ISLAND   CLOUDY    82  60  47 N9        30.08R
6HR MIN TEMP:  68; 6HR MAX TEMP:  83;

AURORA         CLOUDY    82  63  52 N8        30.07R
HASTINGS       CLOUDY    81  63  54 N13       30.08R
6HR MIN TEMP:  70; 6HR MAX TEMP:  81;

HEBRON         DRIZZLE   77  68  74 NE12      30.00S
HOLDREGE       MOSUNNY   82  59  44 NE17G24   30.08F
KEARNEY *      MOSUNNY   84  61  45 NE13      30.10F
YORK           CLOUDY    81  64  57 CALM      30.06R
$$

NEZ011>018-030>034-042>045-241900-
NORTHEAST NEBRASKA

CITY           SKY/WX    TMP DP  RH WIND       PRES   REMARKS
NORFOLK        CLOUDY    83  62  49 NW9       30.06R
6HR MIN TEMP:  69; 6HR MAX TEMP:  84;

ALBION         CLOUDY    78  66  66 N5        30.10R
BLAIR          PTSUNNY   82  66  58 N6        30.01S
FREMONT        CLOUDY    82  63  51 N7        30.01F
TEKAMAH        MOSUNNY   86  64  47 N9        29.99F
6HR MIN TEMP:  73; 6HR MAX TEMP:  87;

WAYNE          MOSUNNY   82  65  56 N9        30.04R
$$

NEZ050>053-065>068-078-088>093-241900-
SOUTHEAST NEBRASKA

CITY           SKY/WX    TMP DP  RH WIND       PRES   REMARKS
LINCOLN        CLOUDY    82  66  58 N8        30.00F
6HR MIN TEMP:  75; 6HR MAX TEMP:  84;

OMAHA EPPLEY   PTSUNNY   84  65  52 N9        29.98S
6HR MIN TEMP:  77; 6HR MAX TEMP:  87;

BEATRICE       PTSUNNY   82  66  57 N7        30.00R
FALLS CITY     CLOUDY    86  77  74 N12       29.94R HX  97
6HR MIN TEMP:  82; 6HR MAX TEMP:  89;

NEBRASKA CITY  CLOUDY    82  65  55 N14       29.96F
PLATTSMOUTH    CLOUDY    84  64  50 NE5       29.99S
$$

NEZ044-045-051>053-067-241900-
OMAHA AREA

CITY           SKY/WX    TMP DP  RH WIND       PRES   REMARKS
OMAHA EPPLEY   PTSUNNY   84  65  52 N9        29.98S
6HR MIN TEMP:  77; 6HR MAX TEMP:  87;

BLAIR          PTSUNNY   82  66  58 N6        30.01S
FREMONT        CLOUDY    82  63  51 N7        30.01F
MILLARD        CLOUDY    84  62  47 N6        29.99S
OFFUTT AFB     MOSUNNY   87  65  47 N10       29.97F
PLATTSMOUTH    CLOUDY    84  64  50 NE5       29.99S
WAHOO          FAIR      82  67  60 N5        30.01S
$$



USA.gov is the U.S. government's official web portal to all federal, state and local government web resources and services.